Home > Weather > Sendai > Past weeks

Flag for Japan Past Weather in Sendai, Japan — Yesterday and Last 2 Weeks

Now
77 °F

Partly sunny.


Feels Like: 78 °F
Forecast: 70 / 86 °F
Wind: 10 mph from South

Location: Sendai Airport

Current Time: Jul 28, 2016 at 5:46:04 PM

Latest Report: Jul 28, 2016 at 5:00 PM


Visibility: N/A

Pressure: 29.89 "Hg

Humidity: 83%

Dew Point: 72 °F

Location of SendaiLocation

Past Weather in Sendai — Graph

°F

Sendai Temperature Yesterday

Maximum temperature yesterday: 79 °F (at 12:00 PM)
Minimum temperature yesterday: 73 °F (at 6:00 AM)
Average temperature yesterday: 76 °F

High & Low Weather Summary for the Past Weeks

 TemperatureHumidityPressure
High84 °F (Jul 18, 12:00 PM)94% (Jul 13, 5:00 PM)30.04 "Hg (Jul 13, 5:00 PM)
Low66 °F (Jul 23, 6:00 AM)57% (Jul 22, 8:00 AM)29.39 "Hg (Jul 14, 12:00 PM)
Average74 °F77%29.81 "Hg
* Reported Jul 13 4:00 PM — Jul 28 4:00 PM, Sendai, Weather by CustomWeather, © 2016

Note: Actual official high and low records may vary slightly from our data, if they occured in-between our weather recording intervals... More about our weather records

Advertising

Sendai Weather History for the Previous 24 Hours

Scroll right to see more
 ConditionsComfort  
Time TempWeatherWind HumidityBarometerVisibility
4:00 PM
Thu, Jul 28
81 °FBroken clouds.12 mph74%29.86 "HgN/A
3:00 PM81 °FBroken clouds.13 mph74%29.86 "HgN/A
2:00 PM82 °FBroken clouds.12 mph70%29.86 "HgN/A
1:00 PM82 °FBroken clouds.10 mph66%29.86 "HgN/A
12:00 PM82 °FBroken clouds.9 mph66%29.86 "HgN/A
11:00 AM79 °FPartly sunny.8 mph74%29.89 "HgN/A
10:00 AM77 °FPartly sunny.7 mph79%29.89 "HgN/A
9:00 AM79 °FPartly sunny.5 mph79%29.89 "HgN/A
8:00 AM77 °FBroken clouds.3 mph83%29.86 "Hg5 mi
7:00 AM77 °FFog.No wind83%29.86 "Hg2 mi
6:00 AM75 °FFog.No wind89%29.86 "Hg2 mi
9:00 PM
Wed, Jul 27
75 °FPassing clouds.10 mph83%29.83 "HgN/A
8:00 PM75 °FSprinkles. Partly cloudy.10 mph83%29.83 "Hg4 mi
7:00 PM75 °FPartly cloudy.8 mph83%29.80 "Hg5 mi
6:00 PM75 °FBroken clouds.9 mph83%29.80 "Hg5 mi
5:00 PM77 °FBroken clouds.13 mph79%29.80 "HgN/A
Weather by CustomWeather, © 2016

See weather overviewHow to use our weather pages